TimeEST,TemperatureF,Dew PointF,Humidity,Sea Level PressureIn,VisibilityMPH,Wind Direction,Wind SpeedMPH,Gust SpeedMPH,PrecipitationIn,Events,Conditions,WindDirDegrees,DateUTC
12:15 AM,60.8,57.2,88,30.02,10.0,South,16.1,20.7,0.02,,Overcast,170,2013-01-30 05:15:00
12:54 AM,61.0,57.0,87,29.93,10.0,South,16.1,25.3,0.02,Rain,Light Rain,170,2013-01-30 05:54:00
1:54 AM,60.1,57.0,90,29.93,5.0,South,15.0,24.2,0.01,Rain,Rain,190,2013-01-30 06:54:00
2:54 AM,61.0,55.9,83,29.90,10.0,South,16.1,-,0.00,,Overcast,170,2013-01-30 07:54:00
3:15 AM,60.8,55.4,82,29.95,10.0,South,19.6,-,N/A,,Overcast,170,2013-01-30 08:15:00
3:23 AM,60.8,55.4,82,29.95,10.0,South,17.3,24.2,0.00,Rain,Light Rain,170,2013-01-30 08:23:00
3:54 AM,61.0,54.0,78,29.87,10.0,SSE,12.7,20.7,0.00,,Overcast,160,2013-01-30 08:54:00
4:54 AM,61.0,55.9,83,29.86,10.0,SSE,16.1,24.2,0.01,Rain,Light Rain,160,2013-01-30 09:54:00
5:54 AM,61.0,57.0,87,29.83,10.0,SSE,10.4,19.6,0.01,Rain,Light Rain,150,2013-01-30 10:54:00
6:34 AM,60.8,55.4,82,29.86,10.0,South,17.3,-,0.00,,Overcast,180,2013-01-30 11:34:00
6:42 AM,60.8,55.4,82,29.85,10.0,South,17.3,28.8,0.00,,Overcast,180,2013-01-30 11:42:00
6:54 AM,60.8,55.4,82,29.85,10.0,South,10.4,24.2,N/A,Rain,Light Rain,190,2013-01-30 11:54:00
7:54 AM,62.1,57.0,84,29.78,10.0,South,23.0,41.4,0.01,Rain,Light Rain,190,2013-01-30 12:54:00
8:23 AM,60.8,57.2,88,29.81,6.0,South,19.6,31.1,0.00,Rain,Light Rain,170,2013-01-30 13:23:00
8:54 AM,61.0,57.9,90,29.78,9.0,South,18.4,27.6,0.01,Rain,Light Rain,180,2013-01-30 13:54:00
9:54 AM,61.0,57.9,90,29.75,10.0,South,16.1,26.5,0.00,Rain,Light Rain,180,2013-01-30 14:54:00
10:54 AM,62.1,57.9,86,29.72,10.0,South,17.3,29.9,0.00,,Overcast,190,2013-01-30 15:54:00
11:54 AM,63.0,59.0,87,29.68,10.0,South,23.0,29.9,0.01,Rain,Light Rain,170,2013-01-30 16:54:00
12:54 PM,63.0,59.0,87,29.62,10.0,South,18.4,29.9,0.01,Rain,Light Rain,180,2013-01-30 17:54:00
1:54 PM,63.0,59.0,87,29.57,10.0,South,19.6,34.5,0.01,Rain,Light Rain,180,2013-01-30 18:54:00
2:54 PM,63.0,59.0,87,29.54,4.0,South,25.3,35.7,0.07,Rain,Rain,180,2013-01-30 19:54:00
3:25 PM,62.6,59.0,88,29.58,1.8,South,26.5,44.9,0.11,Rain,Heavy Rain,180,2013-01-30 20:25:00
3:48 PM,60.8,60.8,100,29.59,0.8,West,11.5,-,0.34,Rain,Heavy Rain,260,2013-01-30 20:48:00
3:49 PM,61.0,60.1,97,29.54,0.8,WSW,12.7,18.4,0.36,Rain,Heavy Rain,250,2013-01-30 20:49:00
3:58 PM,60.8,60.8,100,29.57,0.5,SW,15.0,25.3,0.41,Fog-Rain,Heavy Rain,220,2013-01-30 20:58:00
4:04 PM,60.8,59.0,94,29.57,1.0,SSW,13.8,27.6,0.54,Rain,Heavy Rain,210,2013-01-30 21:04:00
4:12 PM,60.8,60.8,100,29.56,1.5,SSW,9.2,18.4,0.64,Rain,Heavy Rain,210,2013-01-30 21:12:00
4:26 PM,60.8,60.8,100,29.56,0.8,WNW,10.4,-,0.82,Rain,Heavy Rain,300,2013-01-30 21:26:00
4:42 PM,60.8,57.2,88,29.54,1.8,South,8.1,-,1.32,Rain,Rain,190,2013-01-30 21:42:00
4:45 PM,60.8,57.2,88,29.55,2.5,South,13.8,-,1.33,Rain,Heavy Rain,190,2013-01-30 21:45:00
4:49 PM,60.8,57.2,88,29.55,1.2,SSW,9.2,-,1.37,Rain,Heavy Rain,210,2013-01-30 21:49:00
4:54 PM,59.0,57.9,96,29.49,0.8,WSW,5.8,-,1.55,Rain,Heavy Rain,250,2013-01-30 21:54:00
5:00 PM,59.0,57.2,94,29.54,1.2,South,3.5,-,0.06,Rain,Heavy Rain,180,2013-01-30 22:00:00
5:04 PM,59.0,57.2,94,29.54,2.0,South,5.8,-,0.09,Rain,Heavy Rain,170,2013-01-30 22:04:00
5:15 PM,59.0,57.2,94,29.53,3.0,SE,4.6,-,0.12,Rain,Heavy Rain,140,2013-01-30 22:15:00
5:54 PM,57.9,57.9,100,29.47,6.0,SSE,5.8,-,0.28,Rain,Rain,160,2013-01-30 22:54:00
6:54 PM,57.9,57.0,97,29.47,3.0,West,3.5,-,0.17,Rain,Heavy Rain,280,2013-01-30 23:54:00
7:47 PM,55.4,53.6,94,29.50,8.0,North,13.8,20.7,0.11,Rain,Rain,350,2013-01-31 00:47:00
7:54 PM,54.0,51.1,90,29.47,7.0,North,16.1,24.2,0.12,Rain,Rain,350,2013-01-31 00:54:00
8:41 PM,51.8,46.4,82,29.55,10.0,Calm,Calm,-,0.10,Rain,Light Rain,0,2013-01-31 01:41:00
8:54 PM,50.0,48.0,93,29.50,10.0,Calm,Calm,-,0.11,Rain,Light Rain,0,2013-01-31 01:54:00
9:54 PM,48.0,42.1,80,29.48,10.0,NNW,4.6,-,0.01,Rain,Light Rain,330,2013-01-31 02:54:00
10:32 PM,48.2,41.0,76,29.54,10.0,Calm,Calm,-,0.00,,Overcast,0,2013-01-31 03:32:00
10:54 PM,46.4,41.0,81,29.56,10.0,South,5.8,-,N/A,Rain,Light Rain,190,2013-01-31 03:54:00
11:07 PM,46.4,42.8,87,29.53,10.0,South,4.6,-,0.00,,Overcast,170,2013-01-31 04:07:00
11:38 PM,46.4,39.2,76,29.55,10.0,WSW,8.1,-,0.00,,Overcast,240,2013-01-31 04:38:00
11:54 PM,46.0,39.9,79,29.52,10.0,SSW,4.6,-,0.00,Rain,Light Rain,210,2013-01-31 04:54:00